Simultaneous Nadir Overpasses (SNOs) Predictions

Prediction of SNOs between GOES-17 and AQUA Satellite Orbit:

Table of predicted SNOs for the next 14.0 days since TLE Epoch: 10/11/2019
Index Date Time (GOES-17) GOES-17 Lat,Lon AQUA Lat,Lon Distance(km) Time Diff (sec)
1 10/12/2019 22:48:36 -0.00,-137.20 -0.14,-137.95 84.75 80
2 10/14/2019 22:33:44 -0.00,-137.19 0.46,-134.98 250.26 80
3 10/15/2019 10:57:39 0.00,-137.19 0.65,-140.14 335.80 80
4 10/17/2019 10:45:28 0.00,-137.17 0.00,-137.18 1.93 80
5 10/19/2019 10:30:36 -0.00,-137.14 -0.59,-134.22 331.06 80
6 10/19/2019 22:52:01 -0.00,-137.12 -0.47,-139.42 260.92 80
7 10/21/2019 22:42:29 -0.00,-137.09 0.13,-136.46 71.04 80
8 10/23/2019 22:30:17 0.00,-137.04 0.74,-133.50 402.46 80
9 10/24/2019 10:48:52 -0.00,-137.04 0.33,-138.66 184.64 80




NCC Satellite Simultaneous Nadir Overpasses (SNOs) Prediction Service
